ECHOSTAR 12 (RAINBOW 1)

导读

EchoStar 12也叫Rainbow 1,是美国的一颗高功率Ku波段通信卫星,于2003年7月17日发射,由洛克希德·马丁公司空间系统部门打造,属于A2100AX型卫星,设计寿命18年,定轨西经61.5度,搭载可编程点波束,可灵活提供美国本土区域或点波束覆盖服务,开展直播到户广播业务。

基本信息
目录编号:
27852
目录名称:
ECHOSTAR 12 (RAINBOW 1)
国际标识:
2003-033A
轨道中心:
EARTH
卫星名称:
ECHOSTAR 12 (RAINBOW 1)
卫星全名:
--
卫星状态:
在轨 (已飞行8375 天)
发射日期:
2003-07-17 UTC
国别 :
美国 (US)
星等 :
--
轨道信息
数据来源 国际轨道数据 AOE轨道数据
星历时间 2026-06-20T16:07:38+0800
1天前
查看轨道信息
2026-06-21T07:00:00+0800
13小时前
查看轨道信息
半长轴 42558.092km 42557.978km
偏心率 0.0007361 0.0007206
轨道倾角 6.277° 6.278°
近地点辐角 127.671° 127.685°
升交点赤经 85.547° 85.539°
平近点角 184.100° 44.699°
近地点 36148.627km 36149.173km
远地点 36211.283km 36210.509km
周期 1456.240分钟 1456.234分钟
每日圈数 0.988848 0.988852
详细信息
使用方式:
暂无
2D轨道图
3D轨道图
轨道高度分析图
轨道倾角分析图
轨道综合分析图
查看轨道综合分析图